Find Starlink 6259

NORAD ID: 57089 Int'l Des: 2023-088 Owner: SPXS Country: US Constellation: starlink operational
LEOCIRCULAR

Live Position

Loading 3D Globe...

About Starlink 6259

Description loading...

Upcoming Passes

Passes for default location (London). Set your location on the main map for personalized predictions.

Altitude History

Loading altitude history...

Two-Line Element Set

1 57089U 23088AT 26106.67695653 .00001315 00000-0 58720-4 0 9998
2 57089 43.0028 241.2699 0001130 278.5384 81.5340 15.26734926156315
Epoch: Apr 16, 2026 • Age: 12 hours

Current Status

Altitude 485.6 km
Velocity 7.63 km/s
Sub-Earth Point 21.43°N, 130.27°E
Launch Date Jun 22, 2023
Age 2.8 years
Type internet

Technical Details

Classification Payload
Mass 305.00 kg
Dry Mass 290.00 kg
Total Mass 305.00 kg
Length 0.20 m
Diameter 2.80 m
Span 9.00 m
Shape Box + pan
Manufacturer SPXS
Bus Type Starlink
Phase Status In Orbit
Owner/State SPXS/US

Most Searched